[[{"header":{"parameterUnit":"m.s-1","parameterCategory":1,"la1":30.2991,"la2":30.254,"lo1":-89.0895,"lo2":-89.0444,"dy":0.0017,"dx":0.0017,"nx":28,"ny":28,"refTime":"2025-11-13T03:00:00:Z","depth":0,"parameterNumber":2,"parameterNumberName":"U-component_of_WINDS"},"data":[0,0,0,0,0,0,0,0,0,0,0,0,0,0,0,0,0,0,0,0,0,0,0,0,0,0,0,0,0,0,0,0,0,0,0,0,0,0,0,0,0,0,0,0,0,0,0,0,0,0,0,0,0,0,0,0,0,0,0.2155,0.2155,0,0.2195,0.2195,0.2196,0.2169,0.2167,0.2166,0.2165,0.2211,0.2213,0.2216,0,0,0,0,0,0,0,0,0,0,0,0,0,0.206,0.2062,0.2155,0.2155,0.2156,0.2195,0.2195,0.2196,0.2169,0.2167,0.2166,0.2164,0.221,0.2213,0.2216,0,0,0,0,0,0,0,0,0,0,0,0,0,0.2101,0.2063,0.2155,0.2147,0.2147,0.2194,0.2195,0.2196,0.2169,0.2167,0.2165,0.2164,0.2209,0.2213,0.2216,0.2276,0,0,0.2227,0.2229,0,0,0,0,0,0,0,0,0.2099,0.2104,0.2148,0.2148,0.2147,0.2175,0.2179,0.2223,0.217,0.2161,0.2165,0.2163,0.2201,0.2205,0.2217,0.2278,0.228,0.2228,0.223,0.2231,0.2232,0,0,0,0,0,0,0,0.2096,0.2103,0.2171,0.2148,0.2148,0.2143,0.2147,0.2187,0.2191,0.2161,0.216,0.2164,0.22,0.2213,0.2218,0.228,0.2228,0.2231,0.2233,0.2234,0.2392,0.2394,0,0,0,0,0,0,0.2093,0.21,0.2169,0.2172,0.2118,0.2146,0.215,0.2168,0.219,0.2192,0.2166,0.2163,0.2208,0.2213,0.2219,0.229,0.2231,0.2235,0.2237,0.239,0.2392,0.2395,0,0,0,0,0,0,0.2091,0.2099,0.2168,0.2136,0.2144,0.215,0.217,0.217,0.2182,0.2194,0.2195,0.2178,0.2207,0.2214,0.2261,0.2291,0.2236,0.224,0.2388,0.2391,0.2394,0.2432,0,0,0,0,0,0,0.2088,0.2099,0.212,0.2136,0.2146,0.2208,0.2171,0.2172,0.2188,0.2185,0.2205,0.2207,0.2206,0.2256,0.2265,0.2295,0.2242,0.2385,0.2389,0.2393,0.2428,0.2436,0.2443,0,0,0,0,0,0.2085,0.2131,0.2122,0.213,0.2173,0.221,0.2216,0.2212,0.219,0.2213,0.222,0.2206,0.2286,0.2261,0.2271,0.2303,0.2383,0.2388,0.2392,0.2425,0.2435,0.2443,0,0,0,0,0,0,0.2121,0.2133,0.2123,0.2175,0.2191,0.2205,0.2234,0.2222,0.2247,0.2243,0.2238,0.2243,0.2293,0.2302,0.2274,0.2361,0.2331,0.2338,0.2353,0.2362,0.2369,0.2367,0.2245,0,0,0,0,0,0.2134,0.2162,0.2172,0.2217,0.2225,0.2228,0.2244,0.224,0.2257,0.2265,0.2275,0.2295,0.2324,0.2343,0.2371,0.2429,0.2434,0.2456,0.2463,0.2469,0.2475,0.2507,0.2517,0.241,0.241,0.241,0,0,0.2163,0.2173,0.2192,0.2224,0.2236,0.2267,0.2234,0.2268,0.2291,0.2271,0.2315,0.2324,0.2345,0.2397,0.2421,0.2407,0.2505,0.2475,0.2479,0.2482,0.2512,0.2522,0.2531,0.2413,0.2412,0.2412,0,0,0.2232,0.2241,0.228,0.2292,0.231,0.2312,0.2321,0.2336,0.2341,0.2385,0.237,0.2398,0.2449,0.2464,0.2479,0.2551,0.254,0.2561,0.2599,0.263,0.2639,0.2646,0.2672,0.2682,0.2567,0.2567,0.2567,0,0.2266,0.2309,0.2302,0.2336,0.2351,0.2332,0.2371,0.2384,0.2412,0.2423,0.2406,0.2468,0.2481,0.2537,0.2555,0.2567,0.2578,0.2559,0.2638,0.2645,0.2652,0.2677,0.2687,0.2569,0.2569,0.2569,0.2568,0,0.2351,0.2381,0.241,0.2434,0.2453,0.249,0.2489,0.2509,0.2502,0.2506,0.2551,0.2566,0.2596,0.2608,0.2603,0.2664,0.2654,0.2638,0.2608,0.2665,0.2688,0.2698,0.2573,0.2572,0.2571,0.257,0,0,0.2444,0.2462,0.2473,0.2484,0.2502,0.2526,0.2562,0.2589,0.2607,0.2626,0.2657,0.2699,0.2683,0.27,0.2696,0.2723,0.278,0.2703,0.2703,0.2717,0.2848,0.2861,0.2872,0.2772,0.2774,0.2775,0.2846,0,0.2513,0.2574,0.2568,0.2627,0.2655,0.2637,0.2669,0.2684,0.2688,0.2714,0.2719,0.2749,0.2725,0.2735,0.2761,0.2768,0.2806,0.2762,0.2802,0.2804,0.2798,0.2885,0.2899,0.2965,0.2856,0.2857,0.2858,0,0.2603,0.2623,0.2684,0.2697,0.2709,0.2737,0.2762,0.2786,0.2803,0.2804,0.2822,0.2813,0.2851,0.2819,0.2871,0.2842,0.2857,0.2863,0.2866,0.287,0.2835,0.2892,0.2986,0.2997,0.2873,0.2872,0.2871,0,0.2665,0.2708,0.2749,0.2759,0.2776,0.2796,0.2804,0.2819,0.2836,0.2857,0.2868,0.2895,0.291,0.2931,0.293,0.2907,0.2984,0.2952,0.2987,0.2987,0.3004,0.3004,0.3103,0.3013,0.3013,0.3013,0.3013,0,0.2744,0.2782,0.2777,0.2804,0.2846,0.2839,0.2882,0.2888,0.2901,0.2929,0.2915,0.2942,0.2938,0.2966,0.2965,0.3009,0.3016,0.3018,0.3018,0.302,0.302,0.3031,0.3027,0.3016,0.3015,0.3015,0.3014,0,0.2821,0.2819,0.2864,0.2875,0.2879,0.291,0.292,0.2945,0.2947,0.2982,0.299,0.2994,0.3025,0.3026,0.3062,0.3062,0.3115,0.311,0.3109,0.3108,0.3143,0.314,0.3254,0.3269,0.3169,0.317,0.3171,0,0.2872,0.29,0.2914,0.293,0.2939,0.2967,0.2983,0.2977,0.2995,0.3016,0.3039,0.3068,0.3091,0.3142,0.3149,0.3177,0.3172,0.321,0.3176,0.3177,0.3173,0.3172,0.3175,0.3217,0.3218,0.3219,0.322,0,0.2962,0.2959,0.2983,0.3006,0.3025,0.3043,0.306,0.3075,0.3071,0.3092,0.3123,0.3141,0.3176,0.3206,0.3232,0.3242,0.3231,0.323,0.324,0.3243,0.3241,0.3243,0.3128,0.3228,0.3227,0.3227,0.3226,0.3226,0.3028,0.3052,0.3065,0.3092,0.3103,0.3119,0.3143,0.3147,0.3172,0.32,0.3195,0.3229,0.3246,0.328,0.3292,0.3319,0.3306,0.332,0.3324,0.3327,0.3331,0.3236,0.3324,0.3324,0.3323,0.3323,0.3323,0,0.3118,0.3125,0.3149,0.3172,0.3193,0.3178,0.3196,0.3215,0.3245,0.326,0.3282,0.3318,0.3346,0.3355,0.3382,0.3403,0.3398,0.341,0.3409,0.3412,0.3341,0.333,0.3413,0.3413,0.3413,0.3413,0.3413,0.3413,0.3167,0.3208,0.3207,0.3253,0.326,0.3292,0.3304,0.3319,0.3331,0.337,0.3393,0.3397,0.341,0.3439,0.3464,0.3466,0.3477,0.3492,0.3492,0.3426,0.3417,0.3408,0.3398,0.3494,0.3494,0.356,0.3561,0.3561]},{"header":{"parameterUnit":"m.s-1","parameterCategory":1,"la1":30.2991,"la2":30.254,"lo1":-89.0895,"lo2":-89.0444,"dy":0.0017,"dx":0.0017,"nx":28,"ny":28,"refTime":"2025-11-13T03:00:00:Z","depth":0,"parameterNumber":3,"parameterNumberName":"V-component_of_WINDS"},"data":[0,0,0,0,0,0,0,0,0,0,0,0,0,0,0,0,0,0,0,0,0,0,0,0,0,0,0,0,0,0,0,0,0,0,0,0,0,0,0,0,0,0,0,0,0,0,0,0,0,0,0,0,0,0,0,0,0,0,0.7618,0.7617,0,0.7511,0.751,0.7509,0.7388,0.7387,0.7385,0.7383,0.7272,0.7271,0.727,0,0,0,0,0,0,0,0,0,0,0,0,0,0.7717,0.7716,0.7618,0.7617,0.7616,0.7511,0.751,0.7508,0.7389,0.7386,0.7384,0.7382,0.7273,0.7271,0.727,0,0,0,0,0,0,0,0,0,0,0,0,0,0.7648,0.7715,0.7618,0.7543,0.7535,0.7512,0.751,0.7508,0.7389,0.7386,0.7384,0.7381,0.7273,0.7271,0.727,0.7311,0,0,0.7264,0.7263,0,0,0,0,0,0,0,0,0.7653,0.7645,0.7556,0.7548,0.754,0.746,0.7504,0.7442,0.739,0.7445,0.7383,0.738,0.7337,0.733,0.7315,0.7305,0.7301,0.7263,0.7262,0.7261,0.7261,0,0,0,0,0,0,0,0.7657,0.7649,0.7576,0.7554,0.7545,0.7514,0.7502,0.7492,0.7407,0.744,0.7431,0.742,0.7332,0.7318,0.7312,0.7299,0.7263,0.7262,0.7261,0.726,0.7314,0.7316,0,0,0,0,0,0,0.7674,0.7654,0.7579,0.7572,0.7591,0.7515,0.75,0.7488,0.7407,0.7392,0.7422,0.7414,0.7322,0.7314,0.7308,0.7347,0.7261,0.726,0.7258,0.7311,0.7314,0.7317,0,0,0,0,0,0,0.7676,0.7668,0.7583,0.7611,0.7597,0.7516,0.7503,0.7488,0.7473,0.7393,0.7378,0.7423,0.732,0.731,0.731,0.7341,0.7259,0.7257,0.7308,0.7312,0.7316,0.7428,0,0,0,0,0,0,0.768,0.767,0.7685,0.7612,0.7596,0.7589,0.7505,0.7488,0.747,0.7459,0.739,0.7376,0.7317,0.7314,0.7308,0.7337,0.7255,0.7305,0.731,0.7314,0.7421,0.7435,0.7448,0,0,0,0,0,0.7684,0.7722,0.7687,0.7678,0.7614,0.7591,0.7582,0.7513,0.7473,0.7487,0.7436,0.7378,0.734,0.7315,0.7307,0.7336,0.7302,0.7308,0.7314,0.7415,0.7433,0.7447,0,0,0,0,0,0,0.78,0.7711,0.7671,0.7686,0.7647,0.757,0.7586,0.7535,0.7506,0.7496,0.7413,0.7398,0.7407,0.7372,0.7346,0.737,0.7313,0.7317,0.7392,0.7408,0.7421,0.7427,0.7254,0,0,0,0,0,0.7828,0.7818,0.7739,0.7761,0.7743,0.7669,0.7656,0.7607,0.7562,0.7545,0.7494,0.7453,0.743,0.7418,0.7394,0.7417,0.7398,0.7433,0.7447,0.7458,0.7461,0.7467,0.7481,0.7336,0.7336,0.7336,0,0,0.7885,0.7835,0.7833,0.7783,0.7746,0.7736,0.7655,0.7648,0.7638,0.7544,0.7539,0.7501,0.7449,0.746,0.7462,0.7431,0.7498,0.7465,0.7475,0.7472,0.7475,0.7489,0.7501,0.734,0.734,0.7339,0,0,0.7982,0.7945,0.7956,0.7921,0.7868,0.7818,0.7821,0.7752,0.7722,0.7717,0.7644,0.7632,0.7598,0.7563,0.754,0.7624,0.7568,0.7619,0.7686,0.7693,0.7704,0.7714,0.774,0.7751,0.7624,0.7624,0.7624,0,0.8059,0.804,0.7969,0.7965,0.7944,0.7858,0.7868,0.7838,0.778,0.7767,0.7733,0.7686,0.7646,0.7645,0.7665,0.7652,0.765,0.7624,0.7709,0.7718,0.7726,0.7749,0.776,0.763,0.763,0.7629,0.7628,0,0.8135,0.8124,0.814,0.8084,0.8066,0.807,0.7997,0.7987,0.794,0.7893,0.7887,0.7836,0.7798,0.7796,0.775,0.7788,0.777,0.7725,0.7664,0.7747,0.7767,0.7776,0.7639,0.7637,0.7635,0.7634,0,0,0.83,0.8206,0.8212,0.8185,0.8119,0.8108,0.8108,0.8071,0.8062,0.8025,0.802,0.7993,0.7949,0.7924,0.7874,0.7881,0.7946,0.7833,0.7831,0.7853,0.798,0.8012,0.8024,0.791,0.7912,0.7913,0.7983,0,0.8382,0.8375,0.831,0.8321,0.8308,0.8227,0.8226,0.8185,0.8142,0.8123,0.8075,0.8055,0.8002,0.7986,0.7989,0.7937,0.7969,0.7932,0.7902,0.7902,0.7913,0.8035,0.8069,0.8137,0.7991,0.7992,0.7993,0,0.8476,0.8443,0.8453,0.8385,0.8377,0.8378,0.8338,0.8322,0.8274,0.8242,0.8214,0.8157,0.815,0.8096,0.8084,0.8059,0.8044,0.8017,0.8018,0.8009,0.795,0.8026,0.8158,0.8167,0.8006,0.8005,0.8004,0,0.859,0.8549,0.8549,0.8529,0.8451,0.8452,0.842,0.8369,0.8351,0.8316,0.8303,0.8269,0.8249,0.8223,0.8157,0.8125,0.8151,0.8093,0.8121,0.8123,0.8127,0.8127,0.8254,0.8125,0.8124,0.8124,0.8124,0,0.8685,0.8693,0.8598,0.8598,0.8604,0.853,0.8538,0.8498,0.8453,0.8442,0.8371,0.8362,0.8279,0.826,0.8209,0.8204,0.8197,0.8169,0.8154,0.8172,0.8175,0.8158,0.815,0.8127,0.8126,0.8126,0.8125,0,0.8811,0.8749,0.8742,0.867,0.8652,0.8659,0.8596,0.8591,0.8545,0.8531,0.8524,0.845,0.8424,0.8357,0.8314,0.828,0.8287,0.8263,0.8303,0.8293,0.8324,0.832,0.8441,0.8452,0.832,0.8321,0.8322,0,0.8874,0.8878,0.8806,0.8794,0.8764,0.8746,0.8726,0.8655,0.8637,0.8582,0.8583,0.8552,0.8522,0.8484,0.8425,0.8391,0.8364,0.8409,0.8358,0.8375,0.8359,0.8358,0.8356,0.8418,0.842,0.8422,0.8423,0,0.8991,0.896,0.8935,0.8899,0.8878,0.8846,0.881,0.8804,0.8723,0.8707,0.8679,0.8657,0.8612,0.858,0.8537,0.8502,0.8448,0.844,0.8444,0.846,0.8481,0.8466,0.8329,0.8436,0.8435,0.8434,0.8433,0.8433,0.9084,0.9083,0.9031,0.9005,0.8971,0.8939,0.8931,0.8883,0.8859,0.8817,0.8776,0.8752,0.8702,0.8638,0.8607,0.8586,0.8559,0.8566,0.8566,0.8568,0.8575,0.8489,0.8579,0.8578,0.8578,0.8578,0.8577,0,0.9193,0.9156,0.9134,0.9085,0.9065,0.9018,0.8976,0.8961,0.8941,0.8899,0.8872,0.8839,0.8808,0.8747,0.871,0.8705,0.8679,0.8697,0.8695,0.8687,0.8604,0.8602,0.8719,0.8719,0.8719,0.8719,0.8719,0.8719,0.9247,0.9241,0.9204,0.9181,0.9143,0.9119,0.9099,0.9068,0.9034,0.9001,0.8975,0.8936,0.8886,0.8845,0.8813,0.8796,0.8784,0.881,0.8784,0.8707,0.8693,0.868,0.8678,0.8809,0.8809,0.8868,0.8869,0.8869]}]]